www.pogodaiklimat.ru

Погода и климат >> Архив погоды >> Пакистан >> Chhor


ПОГОДА в Chhor

  • Прогноз погоды в Chhor
  • Монитор погоды в Chhor
  • Климат города

АРХИВ ПОГОДЫ в Chhor

Время (UTC), дата Ветер
(напр.,м/с)
 
Видим.   Явления Облачность Т
(С)
Тd
(С)
f
(%)
Тe
(С)
Тes
(С)
Комфортность P
(гПа)
Po
(гПа)
Тmin
(С)
Tmax
(С)
R
(мм)
R24
(мм)
S
(см)
03 14.05 ЮЗ 2 2000 м пыль ясно +30.5 +24.3 70 +43 +48 опасность
перегрева
1004.6 1004.0 +26.5
06 14.05 ЮЗ 1 2000 м пыль ясно +38.0 +22.3 41 +47 +70 опасность
перегрева
1005.8 1005.2
09 14.05 ЮЗ 1 2000 м пыль ясно +42.0 +22.1 32 +49 +73 опасность
перегрева
1002.9 1000.0
12 14.05 ЮЗ 1 2000 м пыль ясно +41.5 +22.4 34 +50 +55 опасность
перегрева
1000.8 1000.0 +43.7
15 14.05 ЮЗ 1 4000 м пыль ясно +36.5 +21.0 41 +44 +44 опасность
перегрева
1001.8 1000.0
18 14.05 ЮЗ 1 4000 м пыль ясно +33.5 +22.2 52 +43 +43 опасность
перегрева
1003.7 1003.1
21 14.05 ЮЗ 1 4000 м пыль ясно +30.5 +23.3 65 +41 +41 опасность
перегрева
1002.9 1003.0
00 15.05 ЮЗ 1 4000 м пыль ясно +28.0 +25.0 84 +40 +40 очень
душно
1003.1 1002.5
03 15.05 ЮЗ 1 2000 м пыль 3/0
[Ci fib]
+30.0 +23.5 68 +41 +47 опасность
перегрева
1004.2 1003.6 +26.5
06 15.05 ЮЗ 2 2000 м пыль 3/0
[Ci fib]
+37.0 +21.9 42 +45 +65 опасность
перегрева
1005.1 1004.5
09 15.05 ЮЗ 2 2000 м пыль 3/0
[Ci fib]
+44.0 +21.1 27 +50 +67 опасность
перегрева
1001.3 1000.0
12 15.05 ЮЗ 1 2000 м пыль ясно +43.0 +19.6 26 +47 +53 опасность
перегрева
999.6 999.0 +45.5
15 15.05 ЮЗ 2 2000 м пыль ясно +39.0 +21.8 37 +46 +46 опасность
перегрева
1001.0 1000.0
18 15.05 ЮЗ 3 4000 м ясно +33.5 +23.5 56 +44 +44 опасность
перегрева
1002.6 1002.0
21 15.05 ЮЗ 3 4000 м ясно +29.0 +24.8 78 +41 +41 опасность
перегрева
1002.1 1002.0
00 16.05 ЮЗ 1 4000 м ясно +27.5 +23.9 81 +38 +38 очень
душно
1001.9 1001.2
03 16.05 ЮЗ 1 4000 м ясно +30.5 +24.1 69 +42 +49 опасность
перегрева
1003.7 1003.1 +27.3
06 16.05 ЮЗ 3 2000 м пыль ясно +37.0 +23.6 46 +47 +64 опасность
перегрева
1004.2 1003.6
09 16.05 ЮЗ 1 2000 м пыль ясно +42.5 +20.9 29 +48 +70 опасность
перегрева
1002.1 1000.0
12 16.05 СЗ 1 2000 м пыль ясно +42.0 +19.2 27 +46 +52 опасность
перегрева
999.7 999.1 +44.3
15 16.05 З 1 2000 м пыль ясно +38.0 +18.5 32 +42 +42 опасность
перегрева
1001.0 1000.0
18 16.05 ЮЗ 2 4000 м ясно +32.5 +23.2 58 +43 +43 опасность
перегрева
1002.8 1002.2
21 16.05 ЮЗ 2 4000 м ясно +30.0 +23.2 67 +40 +40 очень
душно
1000.3 1000.0
00 17.05 ЮЗ 1 4000 м ясно +28.0 +24.4 81 +39 +39 очень
душно
1001.8 1001.1
03 17.05 ЮЗ 1 4000 м ясно +31.0 +24.6 69 +44 +50 опасность
перегрева
1003.0 1002.4 +27.1
06 17.05 ЮЗ 2 4000 м ясно +39.0 +22.7 39 +48 +67 опасность
перегрева
1003.6 1003.0
09 17.05 З 4 4000 м ясно +43.5 +17.2 22 +46 +58 опасность
перегрева
1001.3 1001.0
12 17.05 З 3 4000 м ясно +44.0 +14.5 18 +45 +48 опасность
перегрева
999.2 998.6 +44.8
15 17.05 З 1 4000 м ясно +39.5 +17.6 28 +42 +42 опасность
перегрева
1001.0 1000.0
18 17.05 ЮЗ 1 4000 м ясно +32.5 +23.2 58 +43 +43 опасность
перегрева
1003.2 1002.6
21 17.05 ЮЗ 2 4000 м ясно +29.0 +20.8 61 +36 +36 очень
душно
1001.2 1001.0
00 18.05 штиль 0 4000 м ясно +29.0 +21.6 64 +37 +37 очень
душно
1000.9 1000.2
03 18.05 З 1 4000 м ясно +32.0 +20.9 52 +39 +46 очень
душно
1002.8 1002.2 +28.1
06 18.05 штиль 0 2000 м пыль ясно +38.5 +21.1 37 +45 +72 опасность
перегрева
1003.8 1003.2
09 18.05 З 1 2000 м пыль ясно +44.0 +19.1 24 +48 +72 опасность
перегрева
1000.6 1000.0
12 18.05 З 1 2000 м пыль ясно +42.5 +17.9 24 +45 +51 опасность
перегрева
998.9 998.3 +44.7
15 18.05 З 1 4000 м ясно +38.0 +18.5 32 +42 +42 опасность
перегрева
1001.0 1000.0
18 18.05 ЮЗ 1 4000 м ясно +32.5 +23.2 58 +43 +43 опасность
перегрева
1002.6 1002.0
21 18.05 ЮЗ 1 4000 м ясно +28.0 +22.1 70 +36 +36 очень
душно
1003.6 1000.0
00 19.05 штиль 0 4000 м ясно +29.0 +22.4 68 +38 +38 очень
душно
1001.1 1000.4
03 19.05 ЮЗ 1 4000 м ясно +31.0 +23.9 66 +43 +49 опасность
перегрева
1003.5 1002.9 +27.3
06 19.05 ЮЗ 1 4000 м ясно +39.0 +22.7 39 +48 +71 опасность
перегрева
1004.1 1003.5
09 19.05 ЮЗ 1 4000 м ясно +44.5 +19.8 25 +49 +71 опасность
перегрева
1000.9 1001.0
12 19.05 ЮЗ 2 4000 м 4/4 1050 м
[Cu Sc]
+43.0 +17.5 23 +46 +48 опасность
перегрева
998.9 998.3 +45.2
15 19.05 ЮЗ 1 4000 м ясно +37.5 +19.8 36 +43 +43 опасность
перегрева
1001.1 1000.0
18 19.05 штиль 0 4000 м ясно +33.5 +15.2 33 +35 +35 душно 1002.2 1001.6
21 19.05 ЮВ 1 4000 м ясно +31.0 +14.8 37 +33 +33 душно 1001.9 1000.0
00 20.05 штиль 0 4000 м ясно +28.5 +20.2 61 +35 +35 очень
душно
1001.5 1000.8
03 20.05 штиль 0 4000 м ясно +30.5 +21.7 59 +39 +46 очень
душно
1004.2 1003.6 +26.1
06 20.05 штиль 0 2000 м пыль ясно +39.5 +20.6 34 +46 +72 опасность
перегрева
1005.0 1004.4
09 20.05 штиль 0 2000 м пыль ясно +45.0 +17.4 21 +48 +73 опасность
перегрева
1001.7 1000.0
12 20.05 штиль 0 2000 м пыль ясно +43.5 +17.2 22 +46 +52 опасность
перегрева
999.6 999.0 +46.6
15 20.05 штиль 0 2000 м пыль ясно +39.0 +17.9 29 +42 +42 опасность
перегрева
1001.3 1000.0
18 20.05 штиль 0 4000 м ясно +33.5 +15.2 33 +35 +35 душно 1001.8 1001.2
21 20.05 штиль 0 4000 м ясно +31.0 +16.9 43 +35 +35 очень
душно
1002.0 1000.0
00 21.05 штиль 0 4000 м ясно +28.5 +19.4 58 +34 +34 очень
душно
1001.6 1000.9

 

Местоположение метеостанции Chhor (Пакистан): широта 25.52 долгота 69.78 высота над уровнем моря 6 м.

В архиве по умолчанию представлена погода в Chhor за последнюю неделю. Архивные данные за месяц целиком и за предыдущие месяцы, начиная с января 2011 года, Вы можете получить, выбрав интересующий диапазон дат из раскрывающегося списка и нажав кнопку "Ввод!".


*Определитесь, кто Вы:
робот инопланетянин человек

Внимание! Время в таблицах - всемирное. Для получения местного времени необходимо прибавить поправку, которая в Chhor равна 5 ч.

Смотрите также архив погоды в соседних городах и на ближайших метеорологических станциях:

Погода в Badin (Пакистан) (133 км)
Погода в Hyderabad (Пакистан) (137 км)
Погода в Sakrand (Пакистан) (158 км)
Погода в Barmer (Rajasthan, Индия) (162 км)
Погода в Nawabshah (Пакистан) (163 км)
Погода в Jaisalmer (Rajasthan, Индия) (191 км)
Погода в Pad Idan (Пакистан) (221 км)
Погода в Bhuj-Rudramata (Gujarat, Индия) (253 км)
Погода в Rohri (Пакистан) (255 км)
Погода в Naliya (Gujarat, Индия) (269 км)

Пояснения к столбцам:

Ветер - указаны скорость ветра в м/с - средняя за 10 мин, порывы в срок и между сроками (в фигурных скобках) и направление, откуда дует ветер: С - северный, СВ - северо-восточный, В - восточный, ЮВ - юго-восточный, Ю - южный, ЮЗ - юго-западный, З - западный, СЗ - северо-западный.
Видимость - горизонтальная дальность видимости в метрах или километрах. При видимости от 1 до 10 км при отсутствии осадков обычно наблюдается дымка, при ухудшении видимости до 1 км и менее - туман. В сухую погоду видимость может ухудшаться дымом, пылью или мглою.
Явления - указаны атмосферные явления, наблюдавшиеся в срок или в последний час перед сроком; фигурными скобками обозначены явления, наблюдавшиеся между сроками (за 1-3 часа до срока); квадратными скобками обозначены град или гололедные отложения с указанием их диаметра в мм.
Облачность - указаны через наклонную черту общая и нижняя облачность в баллах и высота нижней границы облаков в метрах; квадратными скобками обозначены формы облаков: Ci - перистые, Cs - перисто-слоистые, Cc - перисто-кучевые, Ac - высококучевые, As - высокослоистые, Sc - слоисто-кучевые, Ns - слоисто-дождевые, Cu - кучевые, Cb - кучево-дождевые. Подробнее классификацию облаков см. в Атласе облаков (PDF).
T - Температура воздуха - температура, измеренная на высоте 2 м над землей.
Td - Температура точки росы - температура, при понижении до которой содержащийся в воздухе водяной пар достигнет насыщения.
f - Относительная влажность воздуха - влажноcть воздуха, измеренная на высоте 2 м над землей.
Te - Эффективная температура - температура, которую ощущает одетый по сезону человек в тени. Характеристика душности погоды. При расчете учитывается влияние влажности воздуха и скорости ветра на теплоощущения человека.
Tes - Эффективная температура на солнце - температура, которую ощущает человек, с поправкой на солнечный нагрев. Характеристика знойности погоды. Зависит от высоты солнца над горизонтом, облачности и скорости ветра. Ночью, в пасмурную погоду, а также при ветре 12 м/с и более поправка равна нулю.
P - Атмосферное давление - приведенное к уровню моря атмосферное давление.
Po - Атмосферное давление - измеренное на уровне метеостанции атмосферное давление.
Tmin - Минимальная температура - минимум температуры воздуха на высоте 2 м над землей.
Tmax - Максимальная температура - максимум температуры воздуха на высоте 2 м над землей.
R - Количество осадков - Количество выпавших осадков за период времени, мм. При наведении курсора мыши на число - период времени, за который выпало указанное количество осадков.
R24 - Количество осадков - Количество выпавших осадков за 24 часа, мм.
S - Снежный покров - Высота снежного покрова, см. При наведении курсора мыши на число - состояние снежного покрова и степень покрытия местности в баллах.